Location: Devore Heights
(34.2372°N, 117.4156°W)
Time: 03:14:42
(UTC+00:00)

SR - Pass Details

Date: 18 September 2024
Orbit: 578 x 855 km, 66.7° (Epoch: 02 October)

Event Time Altitude Azimuth Distance (km) Brightness Sun altitude
Rises 20:39:18 0° 238° (WSW) 2,818 ? 54.7°
Reaches altitude 10° 20:41:59 10° 254° (WSW) 1,900 ? 54.5°
Maximum altitude 20:45:14 21° 305° (NW) 1,314 ? 54.2°
Drops below altitude 10° 20:48:29 10° 355° (N) 1,895 ? 53.8°
Sets 20:51:10 0° 12° (NNE) 2,810 ? 53.6°
